M I D A S
Marine Information and Data Acquisition System
Tripno 393 of the Zeeleeuw from 2002-11-12 07:59:55 to 2002-11-12 11:26:10
Back to CruiseResearch ActivitiesStationsMapUnderway DataData graphs

EquipmentUnitsComments
TimeDGPSUTC
LatitudeDGPSDM.mWGS84
LongitudeDGPSDM.mWGS84
SpeedMeteo Stationm/sRelative wind speed
DirectionMeteo StationdegRelative wind direction
TemperatureMeteo Stationdeg CelciusAir temperature
PressureMeteo StationPaAtmospheric pressure
HumidityMeteo Station%Relative humidity
Missing or incorrect values are displayed as -999
Metereological data collected by the RV Zeeleeuw from 2002-11-12 07:59:55 to 2002-11-12 11:26:10
                                                                                    Next 1000 lines
Time Latitude Longitude Speed Direction Temperature Pressure Humidity
2002-11-12 08:00:03 51°13.767 2°55.698 1.1 260 8.5 100570 89
2002-11-12 08:00:09 51°13.773 2°55.691 1.4 348 8.5 100570 89
2002-11-12 08:00:13 51°13.777 2°55.686 2.3 25 8.5 100560 89
2002-11-12 08:00:18 51°13.782 2°55.681 2.1 316 8.5 100560 89
2002-11-12 08:00:23 51°13.788 2°55.675 4.6 359 8.5 100560 89
2002-11-12 08:00:29 51°13.795 2°55.668 7.8 16 8.5 100560 89
2002-11-12 08:00:33 51°13.799 2°55.664 5.8 351 8.5 100560 89
2002-11-12 08:00:39 51°13.806 2°55.657 7 7 8.5 100560 89
2002-11-12 08:00:43 51°13.812 2°55.653 3.3 347 8.5 100570 89
2002-11-12 08:00:49 51°13.819 2°55.646 6.9 359 8.5 100570 89
2002-11-12 08:00:54 51°13.826 2°55.64 6.2 26 8.5 100570 89
2002-11-12 08:00:59 51°13.832 2°55.634 4.7 19 8.5 100570 89
2002-11-12 08:01:03 51°13.838 2°55.63 4.4 9 8.5 100570 89
2002-11-12 08:01:09 51°13.846 2°55.623 3.9 358 8.5 100570 89
2002-11-12 08:01:14 51°13.853 2°55.617 3.3 11 8.5 100550 89
2002-11-12 08:01:19 51°13.86 2°55.611 2.8 15 8.5 100550 89
2002-11-12 08:01:23 51°13.866 2°55.607 4.7 31 8.5 100560 89
2002-11-12 08:01:29 51°13.874 2°55.6 4.2 324 8.5 100560 89
2002-11-12 08:01:34 51°13.882 2°55.595 5.8 28 8.5 100560 89
2002-11-12 08:01:39 51°13.889 2°55.589 5.4 21 8.5 100560 89
2002-11-12 08:01:43 51°13.895 2°55.585 4.4 27 8.5 100560 89
2002-11-12 08:01:49 51°13.905 2°55.578 4.2 22 8.5 100560 89
2002-11-12 08:01:53 51°13.911 2°55.573 3.3 16 8.5 100560 89
2002-11-12 08:01:59 51°13.921 2°55.566 3.6 24 8.5 100560 89
2002-11-12 08:02:03 51°13.928 2°55.561 3.4 34 8.5 100560 89
2002-11-12 08:02:07 51°13.935 2°55.556 4 8 8.5 100560 89
2002-11-12 08:02:13 51°13.945 2°55.548 4 23 8.5 100560 89
2002-11-12 08:02:19 51°13.956 2°55.54 4.5 30 8.5 100560 89
2002-11-12 08:02:23 51°13.963 2°55.535 2.6 7 8.5 100550 89
2002-11-12 08:02:29 51°13.974 2°55.527 2.2 288 8.5 100550 89
2002-11-12 08:02:31 51°13.978 2°55.524 2.2 300 8.5 100550 89
2002-11-12 08:02:39 51°13.993 2°55.514 1.3 308 8.5 100550 89
2002-11-12 08:02:43 51°14 2°55.508 2.2 350 8.5 100550 89
2002-11-12 08:02:49 51°14.011 2°55.5 1.6 4 8.5 100550 89
2002-11-12 08:02:53 51°14.019 2°55.494 1.2 336 8.5 100550 89
2002-11-12 08:02:59 51°14.03 2°55.485 0.6 334 8.5 100550 89
2002-11-12 08:03:03 51°14.038 2°55.479 1.3 337 8.5 100560 89
2002-11-12 08:03:09 51°14.049 2°55.47 2.9 17 8.5 100560 89
2002-11-12 08:03:13 51°14.056 2°55.464 2.6 355 8.5 100550 89
2002-11-12 08:03:19 51°14.068 2°55.456 3 359 8.5 100550 89
2002-11-12 08:03:23 51°14.076 2°55.45 3.2 18 8.5 100550 89
2002-11-12 08:03:29 51°14.087 2°55.441 1.2 339 8.5 100550 89
2002-11-12 08:03:34 51°14.096 2°55.433 0.7 4 8.5 100550 89
2002-11-12 08:03:39 51°14.106 2°55.426 3.7 29 8.5 100550 89
2002-11-12 08:03:43 51°14.114 2°55.42 3.7 33 8.5 100550 89
2002-11-12 08:03:47 51°14.121 2°55.414 3.3 26 8.5 100550 89
2002-11-12 08:03:54 51°14.135 2°55.404 3.6 4 8.5 100550 89
2002-11-12 08:03:59 51°14.144 2°55.396 1.4 15 8.5 100550 89
2002-11-12 08:04:03 51°14.152 2°55.389 2.4 27 8.5 100550 89
2002-11-12 08:04:08 51°14.161 2°55.381 2 332 8.5 100550 89
2002-11-12 08:04:13 51°14.171 2°55.372 1 321 8.5 100550 89
2002-11-12 08:04:18 51°14.18 2°55.362 2.2 25 8.5 100550 89
2002-11-12 08:04:23 51°14.189 2°55.353 1.5 325 8.5 100550 89
2002-11-12 08:04:29 51°14.199 2°55.341 1.1 324 8.5 100550 89
2002-11-12 08:04:34 51°14.208 2°55.331 4.1 293 8.5 100550 89
2002-11-12 08:04:39 51°14.216 2°55.319 3.9 321 8.5 100550 89
2002-11-12 08:04:43 51°14.223 2°55.311 2.8 349 8.5 100550 89
2002-11-12 08:04:47 51°14.229 2°55.301 3.7 341 8.5 100550 89
2002-11-12 08:04:53 51°14.239 2°55.287 4.7 338 8.5 100550 89
2002-11-12 08:04:58 51°14.247 2°55.275 3.6 278 8.5 100550 89
2002-11-12 08:05:03 51°14.254 2°55.263 2.6 360 8.5 100550 89
2002-11-12 08:05:09 51°14.263 2°55.248 4.6 352 8.5 100550 89
2002-11-12 08:05:14 51°14.271 2°55.235 3.4 357 8.6 100550 89
2002-11-12 08:05:19 51°14.278 2°55.222 3.3 320 8.6 100550 89
2002-11-12 08:05:23 51°14.283 2°55.211 1.5 295 8.5 100540 89
2002-11-12 08:05:29 51°14.292 2°55.195 2.6 309 8.5 100540 89
2002-11-12 08:05:34 51°14.299 2°55.182 3.1 253 8.6 100550 89
2002-11-12 08:05:38 51°14.305 2°55.171 3.3 284 8.6 100550 89
2002-11-12 08:05:43 51°14.312 2°55.157 5.7 284 8.5 100540 89
2002-11-12 08:05:49 51°14.32 2°55.141 6.2 296 8.5 100540 89
2002-11-12 08:05:54 51°14.327 2°55.127 5.7 317 8.6 100540 89
2002-11-12 08:05:59 51°14.334 2°55.112 5 300 8.6 100540 89
2002-11-12 08:06:03 51°14.34 2°55.1 4.9 308 8.6 100540 89
2002-11-12 08:06:07 51°14.345 2°55.088 6.5 287 8.6 100540 89
2002-11-12 08:06:14 51°14.356 2°55.065 4.6 279 8.6 100530 89
2002-11-12 08:06:19 51°14.364 2°55.048 4.5 310 8.6 100530 89
2002-11-12 08:06:23 51°14.37 2°55.034 3.7 359 8.6 100530 89
2002-11-12 08:06:27 51°14.376 2°55.02 4.8 351 8.6 100530 89
2002-11-12 08:06:33 51°14.385 2°54.999 2.7 316 8.6 100540 89
2002-11-12 08:06:39 51°14.394 2°54.977 4.7 293 8.6 100540 89
2002-11-12 08:06:43 51°14.4 2°54.962 8.3 287 8.6 100540 89
2002-11-12 08:06:49 51°14.406 2°54.938 7.3 291 8.6 100540 89
2002-11-12 08:06:54 51°14.411 2°54.917 6.5 294 8.6 100560 89
2002-11-12 08:06:59 51°14.416 2°54.896 9.7 293 8.6 100560 89
2002-11-12 08:07:03 51°14.418 2°54.879 8.8 297 8.6 100550 89
2002-11-12 08:07:09 51°14.422 2°54.852 10.4 285 8.6 100550 89
2002-11-12 08:07:14 51°14.424 2°54.829 12.4 284 8.6 100530 89
2002-11-12 08:07:19 51°14.425 2°54.805 11.7 292 8.6 100530 89
2002-11-12 08:07:23 51°14.425 2°54.786 10.7 282 8.6 100530 89
2002-11-12 08:07:27 51°14.426 2°54.767 11.6 282 8.6 100530 89
2002-11-12 08:07:33 51°14.426 2°54.738 11.3 298 8.6 100530 89
2002-11-12 08:07:39 51°14.426 2°54.709 12.3 300 8.6 100530 89
2002-11-12 08:07:43 51°14.426 2°54.69 11.8 285 8.6 100530 89
2002-11-12 08:07:47 51°14.426 2°54.67 10.3 285 8.6 100530 89
2002-11-12 08:07:53 51°14.425 2°54.641 9.7 284 8.6 100510 89
2002-11-12 08:07:59 51°14.424 2°54.612 11.3 294 8.6 100510 89
2002-11-12 08:08:03 51°14.423 2°54.593 10.5 284 8.6 100530 89
2002-11-12 08:08:07 51°14.421 2°54.574 12.6 279 8.6 100530 89
2002-11-12 08:08:13 51°14.416 2°54.546 14 277 8.6 100530 89
2002-11-12 08:08:18 51°14.412 2°54.525 14.9 280 8.6 100530 89
2002-11-12 08:08:23 51°14.406 2°54.503 15.2 277 8.7 100500 89
2002-11-12 08:08:29 51°14.399 2°54.477 13.6 283 8.7 100500 89
2002-11-12 08:08:34 51°14.392 2°54.456 15.1 278 8.7 100510 89
2002-11-12 08:08:39 51°14.386 2°54.435 15.1 264 8.7 100510 89
2002-11-12 08:08:43 51°14.381 2°54.419 14.5 274 8.7 100500 89
2002-11-12 08:08:49 51°14.373 2°54.393 16.7 277 8.7 100500 89
2002-11-12 08:08:54 51°14.366 2°54.373 13.3 273 8.7 100480 89
2002-11-12 08:08:59 51°14.36 2°54.352 14.9 280 8.7 100480 89
2002-11-12 08:09:03 51°14.354 2°54.335 13.8 279 8.7 100500 89
2002-11-12 08:09:09 51°14.346 2°54.311 13.2 263 8.7 100500 89
2002-11-12 08:09:14 51°14.339 2°54.29 14.4 269 8.7 100470 89
2002-11-12 08:09:19 51°14.333 2°54.269 13.9 280 8.7 100470 89
2002-11-12 08:09:23 51°14.327 2°54.252 14.4 276 8.7 100490 89
2002-11-12 08:09:29 51°14.319 2°54.227 14.2 272 8.7 100490 89
2002-11-12 08:09:33 51°14.313 2°54.21 13.5 273 8.7 100500 89
2002-11-12 08:09:39 51°14.305 2°54.185 15.1 269 8.7 100500 89
2002-11-12 08:09:43 51°14.3 2°54.168 13.4 273 8.7 100490 89
2002-11-12 08:09:49 51°14.292 2°54.143 11.7 277 8.7 100490 89
2002-11-12 08:09:54 51°14.285 2°54.122 14.3 262 8.7 100470 89
2002-11-12 08:09:58 51°14.279 2°54.105 16.1 265 8.7 100470 89
2002-11-12 08:10:03 51°14.272 2°54.084 15.3 266 8.7 100490 89
2002-11-12 08:10:09 51°14.264 2°54.059 15.4 267 8.7 100490 89
2002-11-12 08:10:13 51°14.258 2°54.043 12.5 265 8.7 100490 89
2002-11-12 08:10:18 51°14.252 2°54.021 14.6 261 8.7 100490 89
2002-11-12 08:10:23 51°14.245 2°54.001 14.4 270 8.7 100500 89
2002-11-12 08:10:27 51°14.239 2°53.984 14.7 269 8.7 100500 89
2002-11-12 08:10:34 51°14.229 2°53.954 14.1 264 8.7 100480 89
2002-11-12 08:10:39 51°14.223 2°53.933 13.1 273 8.7 100480 89
2002-11-12 08:10:43 51°14.217 2°53.916 12 272 8.7 100490 89
2002-11-12 08:10:49 51°14.209 2°53.891 13.8 266 8.7 100490 89
2002-11-12 08:10:53 51°14.204 2°53.874 13 271 8.7 100490 89
2002-11-12 08:10:59 51°14.196 2°53.848 16.6 267 8.7 100490 89
2002-11-12 08:11:03 51°14.19 2°53.831 18.5 267 8.8 100500 89
2002-11-12 08:11:09 51°14.183 2°53.806 16.3 274 8.8 100500 89
2002-11-12 08:11:13 51°14.178 2°53.789 14.4 273 8.8 100500 89
2002-11-12 08:11:19 51°14.169 2°53.763 15.1 281 8.8 100500 89
2002-11-12 08:11:23 51°14.164 2°53.746 15.6 275 8.8 100490 89
2002-11-12 08:11:29 51°14.156 2°53.721 15.9 271 8.8 100490 89
2002-11-12 08:11:33 51°14.15 2°53.704 15.1 280 8.7 100460 89
2002-11-12 08:11:39 51°14.142 2°53.679 15.8 274 8.7 100460 89
2002-11-12 08:11:43 51°14.137 2°53.661 18.7 276 8.7 100480 89
2002-11-12 08:11:49 51°14.128 2°53.636 16.2 275 8.7 100480 89
2002-11-12 08:11:53 51°14.123 2°53.619 14.7 274 8.7 100490 89
2002-11-12 08:11:58 51°14.116 2°53.598 14.7 273 8.7 100490 89
2002-11-12 08:12:03 51°14.109 2°53.577 14.2 271 8.7 100490 89
2002-11-12 08:12:09 51°14.101 2°53.552 15.7 270 8.7 100490 89
2002-11-12 08:12:14 51°14.095 2°53.531 16.2 271 8.8 100480 89
2002-11-12 08:12:19 51°14.088 2°53.509 16.5 277 8.8 100480 89
2002-11-12 08:12:23 51°14.082 2°53.493 15.2 274 8.7 100490 89
2002-11-12 08:12:29 51°14.074 2°53.467 14 273 8.7 100490 89
2002-11-12 08:12:34 51°14.067 2°53.446 14.3 280 8.7 100490 89
2002-11-12 08:12:39 51°14.061 2°53.425 13.2 277 8.7 100490 89
2002-11-12 08:12:43 51°14.055 2°53.408 16 276 8.7 100490 88
2002-11-12 08:12:48 51°14.049 2°53.387 14.2 275 8.7 100490 88
2002-11-12 08:12:53 51°14.042 2°53.366 14.3 273 8.7 100480 89
2002-11-12 08:12:59 51°14.034 2°53.34 16.9 270 8.7 100480 89
2002-11-12 08:13:03 51°14.03 2°53.322 14.9 275 8.8 100490 89
2002-11-12 08:13:09 51°14.022 2°53.296 14.3 271 8.8 100490 89
2002-11-12 08:13:14 51°14.017 2°53.275 13 273 8.7 100470 89
2002-11-12 08:13:19 51°14.01 2°53.253 13 272 8.7 100470 89
2002-11-12 08:13:23 51°14.005 2°53.236 13.5 271 8.7 100480 89
2002-11-12 08:13:29 51°13.998 2°53.209 13.4 273 8.7 100480 89
2002-11-12 08:13:34 51°13.992 2°53.188 15.1 279 8.7 100490 88
2002-11-12 08:13:39 51°13.986 2°53.166 13.7 283 8.7 100490 88
2002-11-12 08:13:43 51°13.981 2°53.148 12.8 279 8.8 100500 89
2002-11-12 08:13:49 51°13.974 2°53.122 15.3 275 8.8 100500 89
2002-11-12 08:13:53 51°13.969 2°53.104 16.5 273 8.8 100490 89
2002-11-12 08:13:59 51°13.962 2°53.078 16.1 279 8.8 100490 89
2002-11-12 08:14:03 51°13.957 2°53.06 17.8 276 8.8 100480 89
2002-11-12 08:14:09 51°13.95 2°53.034 13.7 275 8.8 100480 89
2002-11-12 08:14:14 51°13.944 2°53.012 14.3 272 8.8 100490 89
2002-11-12 08:14:19 51°13.938 2°52.99 14.2 273 8.8 100490 89
2002-11-12 08:14:23 51°13.933 2°52.972 14.8 276 8.8 100470 88
2002-11-12 08:14:27 51°13.928 2°52.955 14.3 278 8.8 100470 88
2002-11-12 08:14:34 51°13.919 2°52.925 13.3 269 8.8 100490 89
2002-11-12 08:14:39 51°13.913 2°52.903 14.4 271 8.8 100490 89
2002-11-12 08:14:43 51°13.908 2°52.886 14.3 273 8.8 100490 89
2002-11-12 08:14:47 51°13.902 2°52.869 16 277 8.8 100490 89
2002-11-12 08:14:53 51°13.894 2°52.843 14.4 275 8.8 100480 88
2002-11-12 08:14:59 51°13.887 2°52.817 13.2 276 8.8 100480 88
2002-11-12 08:15:03 51°13.881 2°52.8 13 271 8.8 100490 88
2002-11-12 08:15:09 51°13.874 2°52.774 15.3 270 8.8 100490 88
2002-11-12 08:15:14 51°13.867 2°52.752 14.5 273 8.8 100490 88
2002-11-12 08:15:19 51°13.86 2°52.731 14 274 8.8 100490 88
2002-11-12 08:15:23 51°13.855 2°52.714 14.2 273 8.8 100490 88
2002-11-12 08:15:29 51°13.847 2°52.688 14.4 275 8.8 100490 88
2002-11-12 08:15:34 51°13.841 2°52.666 15 280 8.8 100500 88
2002-11-12 08:15:39 51°13.834 2°52.645 15.3 273 8.8 100500 88
2002-11-12 08:15:43 51°13.829 2°52.627 15.9 279 8.8 100480 88
2002-11-12 08:15:49 51°13.821 2°52.602 15.8 281 8.8 100480 88
2002-11-12 08:15:54 51°13.815 2°52.58 15.6 278 8.8 100490 88
2002-11-12 08:15:59 51°13.808 2°52.559 13.3 269 8.8 100490 88
2002-11-12 08:16:03 51°13.803 2°52.542 14.1 270 8.8 100490 88
2002-11-12 08:16:09 51°13.795 2°52.516 14.6 276 8.8 100490 88
2002-11-12 08:16:14 51°13.788 2°52.494 14.3 279 8.8 100490 88
2002-11-12 08:16:19 51°13.782 2°52.472 14.1 275 8.8 100490 88
2002-11-12 08:16:23 51°13.776 2°52.455 16.5 275 8.8 100490 89
2002-11-12 08:16:29 51°13.769 2°52.429 13.7 279 8.8 100490 89
2002-11-12 08:16:34 51°13.762 2°52.408 13.4 274 8.8 100490 89
2002-11-12 08:16:39 51°13.756 2°52.386 13.8 279 8.8 100490 89
2002-11-12 08:16:43 51°13.75 2°52.369 14.5 279 8.8 100480 88
2002-11-12 08:16:49 51°13.743 2°52.343 14 274 8.8 100480 88
2002-11-12 08:16:53 51°13.737 2°52.325 14 276 8.8 100490 88
2002-11-12 08:16:59 51°13.729 2°52.299 13.8 270 8.8 100490 88
2002-11-12 08:17:03 51°13.724 2°52.282 13.7 278 8.8 100490 89
2002-11-12 08:17:07 51°13.719 2°52.264 13.8 273 8.8 100490 89
2002-11-12 08:17:13 51°13.711 2°52.238 14.4 271 8.8 100490 89
2002-11-12 08:17:19 51°13.703 2°52.212 15.7 272 8.8 100490 89
2002-11-12 08:17:23 51°13.697 2°52.195 16 276 8.9 100490 89
2002-11-12 08:17:29 51°13.69 2°52.169 15.8 278 8.9 100490 89
2002-11-12 08:17:33 51°13.684 2°52.152 14.9 277 8.8 100490 88
2002-11-12 08:17:39 51°13.676 2°52.126 13.7 276 8.8 100490 88
2002-11-12 08:17:43 51°13.671 2°52.108 14.9 271 8.8 100490 88
2002-11-12 08:17:49 51°13.663 2°52.082 15.1 274 8.8 100490 88
2002-11-12 08:17:54 51°13.656 2°52.061 13.6 276 8.8 100480 88
2002-11-12 08:17:59 51°13.65 2°52.039 15.6 278 8.8 100480 88
2002-11-12 08:18:03 51°13.644 2°52.022 16 279 8.9 100490 88
2002-11-12 08:18:09 51°13.636 2°51.996 13.9 269 8.9 100490 88
2002-11-12 08:18:13 51°13.631 2°51.978 15.6 275 8.9 100490 89
2002-11-12 08:18:19 51°13.623 2°51.952 13.7 277 8.9 100490 89
2002-11-12 08:18:23 51°13.617 2°51.935 14.8 273 8.9 100480 89
2002-11-12 08:18:29 51°13.609 2°51.909 12.8 272 8.9 100480 89
2002-11-12 08:18:34 51°13.603 2°51.887 14.6 272 8.9 100490 89
2002-11-12 08:18:39 51°13.596 2°51.866 14.1 274 8.9 100490 89
2002-11-12 08:18:43 51°13.591 2°51.848 13.8 273 8.9 100490 89
2002-11-12 08:18:49 51°13.583 2°51.822 13.7 274 8.9 100490 89
2002-11-12 08:18:53 51°13.578 2°51.805 14.9 279 8.9 100490 89
2002-11-12 08:18:59 51°13.569 2°51.779 13.7 278 8.9 100490 89
2002-11-12 08:19:03 51°13.564 2°51.762 13.4 274 8.9 100480 89
2002-11-12 08:19:08 51°13.557 2°51.74 13.6 279 8.9 100480 89
2002-11-12 08:19:11 51°13.554 2°51.727 13.8 271 8.9 100480 88
2002-11-12 08:19:19 51°13.543 2°51.693 14.7 276 8.9 100480 88
2002-11-12 08:19:23 51°13.538 2°51.675 14.2 277 8.9 100470 88
2002-11-12 08:19:29 51°13.53 2°51.65 15.4 273 8.9 100470 88
2002-11-12 08:19:34 51°13.523 2°51.628 14.1 270 8.9 100480 89
2002-11-12 08:19:39 51°13.516 2°51.606 15.5 268 8.9 100480 89
2002-11-12 08:19:43 51°13.511 2°51.589 15.6 270 8.9 100490 88
2002-11-12 08:19:49 51°13.503 2°51.563 14.9 270 8.9 100490 88
2002-11-12 08:19:54 51°13.496 2°51.541 15.3 272 8.9 100480 88
2002-11-12 08:19:59 51°13.49 2°51.519 16.9 272 8.9 100480 88
2002-11-12 08:20:03 51°13.484 2°51.502 16.2 273 8.9 100480 88
2002-11-12 08:20:09 51°13.476 2°51.476 16.3 277 8.9 100480 88
2002-11-12 08:20:13 51°13.471 2°51.459 15.4 276 8.9 100470 88
2002-11-12 08:20:19 51°13.463 2°51.433 15.4 279 8.9 100470 88
2002-11-12 08:20:23 51°13.457 2°51.416 14.4 275 8.9 100470 88
2002-11-12 08:20:29 51°13.449 2°51.39 14.8 277 8.9 100470 88
2002-11-12 08:20:33 51°13.443 2°51.372 14.2 276 8.9 100480 88
2002-11-12 08:20:39 51°13.435 2°51.346 14.3 273 8.9 100480 88
2002-11-12 08:20:43 51°13.429 2°51.329 14.6 274 8.8 100470 88
2002-11-12 08:20:48 51°13.423 2°51.308 15 275 8.8 100470 88
2002-11-12 08:20:54 51°13.415 2°51.282 14.7 278 8.9 100490 88
2002-11-12 08:20:58 51°13.41 2°51.264 16.3 278 8.9 100490 88
2002-11-12 08:21:03 51°13.403 2°51.243 15.4 278 8.9 100490 89
2002-11-12 08:21:07 51°13.398 2°51.226 16.4 276 8.9 100490 89
2002-11-12 08:21:14 51°13.389 2°51.196 15.7 274 8.9 100490 89
2002-11-12 08:21:19 51°13.382 2°51.174 14.6 271 8.9 100490 89
2002-11-12 08:21:23 51°13.377 2°51.158 16.5 274 8.9 100490 88
2002-11-12 08:21:27 51°13.371 2°51.141 14.5 273 8.9 100490 88
2002-11-12 08:21:34 51°13.362 2°51.112 14.4 276 8.9 100480 88
2002-11-12 08:21:39 51°13.356 2°51.091 15.8 276 8.9 100480 88
2002-11-12 08:21:43 51°13.35 2°51.073 15.9 274 8.9 100480 88
2002-11-12 08:21:49 51°13.342 2°51.048 14.7 271 8.9 100480 88
2002-11-12 08:21:54 51°13.335 2°51.027 14.3 266 8.9 100470 89
2002-11-12 08:21:59 51°13.328 2°51.006 14.1 272 8.9 100470 89
2002-11-12 08:22:03 51°13.323 2°50.989 15.6 274 8.9 100490 89
2002-11-12 08:22:09 51°13.315 2°50.963 15.6 269 8.9 100490 89
2002-11-12 08:22:13 51°13.31 2°50.947 15.6 278 8.9 100490 89
2002-11-12 08:22:19 51°13.302 2°50.921 14.7 272 8.9 100490 89
2002-11-12 08:22:23 51°13.296 2°50.904 13.8 273 8.9 100480 89
2002-11-12 08:22:29 51°13.288 2°50.879 16.2 280 8.9 100480 89
2002-11-12 08:22:34 51°13.281 2°50.858 15.5 272 8.9 100480 89
2002-11-12 08:22:39 51°13.275 2°50.836 15.1 273 8.9 100480 89
2002-11-12 08:22:43 51°13.269 2°50.819 15.9 274 8.9 100480 89
2002-11-12 08:22:47 51°13.264 2°50.802 14.1 276 8.9 100480 89
2002-11-12 08:22:53 51°13.256 2°50.777 15.1 277 8.9 100480 89
2002-11-12 08:22:59 51°13.248 2°50.752 14 274 8.9 100480 89
2002-11-12 08:23:03 51°13.242 2°50.735 15.3 277 8.9 100470 89
2002-11-12 08:23:09 51°13.234 2°50.709 16.3 274 8.9 100470 89
2002-11-12 08:23:14 51°13.228 2°50.687 17.4 279 8.9 100470 88
2002-11-12 08:23:19 51°13.221 2°50.665 16 277 8.9 100470 88
2002-11-12 08:23:23 51°13.216 2°50.648 17 281 8.9 100480 89
2002-11-12 08:23:29 51°13.208 2°50.622 15.6 275 8.9 100480 89
2002-11-12 08:23:34 51°13.202 2°50.601 16.6 273 8.9 100470 89
2002-11-12 08:23:39 51°13.195 2°50.58 16 274 8.9 100470 89
2002-11-12 08:23:43 51°13.19 2°50.562 16.2 280 8.9 100460 88
2002-11-12 08:23:49 51°13.182 2°50.537 16 282 8.9 100460 88
2002-11-12 08:23:53 51°13.176 2°50.52 15 272 8.9 100460 89
2002-11-12 08:23:59 51°13.168 2°50.494 14.5 274 8.9 100460 89
2002-11-12 08:24:02 51°13.164 2°50.481 14.7 281 8.9 100470 89
2002-11-12 08:24:07 51°13.157 2°50.459 16.4 280 8.9 100470 89
2002-11-12 08:24:14 51°13.148 2°50.43 15.2 273 8.9 100470 89
2002-11-12 08:24:19 51°13.141 2°50.408 16.1 280 8.9 100470 89
2002-11-12 08:24:23 51°13.135 2°50.391 16.8 274 8.9 100470 89
2002-11-12 08:24:29 51°13.127 2°50.365 16.4 279 8.9 100470 89
2002-11-12 08:24:34 51°13.12 2°50.344 18.1 277 9 100470 89
2002-11-12 08:24:39 51°13.114 2°50.322 17.9 278 9 100470 89
2002-11-12 08:24:43 51°13.109 2°50.306 17.3 278 9 100470 89
2002-11-12 08:24:49 51°13.101 2°50.28 16.1 275 9 100470 89
2002-11-12 08:24:54 51°13.094 2°50.259 16.7 272 8.9 100460 89
2002-11-12 08:24:59 51°13.087 2°50.238 17.6 275 8.9 100460 89
2002-11-12 08:25:03 51°13.081 2°50.221 17.9 269 8.9 100470 89
2002-11-12 08:25:09 51°13.072 2°50.196 16.8 281 8.9 100470 89
2002-11-12 08:25:13 51°13.067 2°50.179 15.5 279 8.9 100460 89
2002-11-12 08:25:19 51°13.058 2°50.154 18.5 280 8.9 100460 89
2002-11-12 08:25:23 51°13.052 2°50.138 16 280 8.9 100460 89
2002-11-12 08:25:28 51°13.045 2°50.117 15.2 270 8.9 100460 89
2002-11-12 08:25:33 51°13.038 2°50.096 15.3 271 8.9 100470 89
2002-11-12 08:25:39 51°13.03 2°50.071 17 279 8.9 100470 89
2002-11-12 08:25:43 51°13.024 2°50.054 17.8 278 9 100470 89
2002-11-12 08:25:47 51°13.018 2°50.037 17.5 277 9 100470 89
2002-11-12 08:25:53 51°13.01 2°50.012 16.4 277 8.9 100470 89
2002-11-12 08:25:59 51°13.002 2°49.986 16.8 277 8.9 100470 89
2002-11-12 08:26:03 51°12.996 2°49.97 14.1 274 8.9 100470 89
2002-11-12 08:26:09 51°12.988 2°49.945 18.2 278 8.9 100470 89
2002-11-12 08:26:13 51°12.982 2°49.928 15.6 274 8.9 100460 88
2002-11-12 08:26:19 51°12.974 2°49.903 17.4 275 8.9 100460 88
2002-11-12 08:26:23 51°12.968 2°49.886 15 273 8.9 100460 88
2002-11-12 08:26:29 51°12.959 2°49.86 15.4 275 8.9 100460 88
2002-11-12 08:26:33 51°12.954 2°49.844 15.5 272 8.9 100460 88
2002-11-12 08:26:39 51°12.945 2°49.819 14.9 280 8.9 100460 88
2002-11-12 08:26:43 51°12.94 2°49.802 17.1 274 8.9 100470 89
2002-11-12 08:26:49 51°12.931 2°49.777 15.8 277 8.9 100470 89
2002-11-12 08:26:53 51°12.926 2°49.759 17.1 280 8.9 100470 89
2002-11-12 08:26:59 51°12.917 2°49.734 15.8 279 8.9 100470 89
2002-11-12 08:27:03 51°12.911 2°49.717 15.1 274 9 100470 89
2002-11-12 08:27:09 51°12.903 2°49.692 16.5 275 9 100470 89
2002-11-12 08:27:14 51°12.896 2°49.671 17.5 276 9 100460 89
2002-11-12 08:27:19 51°12.889 2°49.65 15.7 276 9 100460 89
2002-11-12 08:27:23 51°12.883 2°49.633 15.4 276 9 100470 89
2002-11-12 08:27:29 51°12.875 2°49.607 16 283 9 100470 89
2002-11-12 08:27:34 51°12.867 2°49.587 15.6 277 8.9 100470 89
2002-11-12 08:27:39 51°12.861 2°49.565 17.1 279 8.9 100470 89
2002-11-12 08:27:43 51°12.855 2°49.548 15.3 283 8.9 100470 88
2002-11-12 08:27:48 51°12.849 2°49.526 14.2 279 8.9 100470 88
2002-11-12 08:27:54 51°12.841 2°49.501 13.7 278 8.9 100470 88
2002-11-12 08:27:59 51°12.834 2°49.479 15 274 8.9 100470 88
2002-11-12 08:28:04 51°12.826 2°49.458 15.1 280 8.9 100470 88
2002-11-12 08:28:09 51°12.819 2°49.437 16 277 8.9 100470 88
2002-11-12 08:28:13 51°12.814 2°49.42 17.7 273 8.9 100470 88
2002-11-12 08:28:19 51°12.806 2°49.394 17.3 280 8.9 100470 88
2002-11-12 08:28:23 51°12.8 2°49.378 15.6 276 8.9 100480 88
2002-11-12 08:28:27 51°12.795 2°49.36 17 276 8.9 100480 88
2002-11-12 08:28:34 51°12.785 2°49.331 17.3 276 9 100470 89
2002-11-12 08:28:38 51°12.78 2°49.314 16.7 272 9 100470 89
2002-11-12 08:28:43 51°12.773 2°49.293 15.9 273 8.9 100450 89
2002-11-12 08:28:49 51°12.765 2°49.267 16.1 277 8.9 100450 89
2002-11-12 08:28:54 51°12.758 2°49.246 15.6 275 8.9 100470 88
2002-11-12 08:28:59 51°12.752 2°49.225 15.6 279 8.9 100470 88
2002-11-12 08:29:03 51°12.746 2°49.208 14.8 278 8.9 100460 88
2002-11-12 08:29:08 51°12.74 2°49.186 17 281 8.9 100460 88
2002-11-12 08:29:13 51°12.733 2°49.164 14.6 280 8.9 100460 88
2002-11-12 08:29:19 51°12.724 2°49.139 16.6 281 8.9 100460 88
2002-11-12 08:29:23 51°12.719 2°49.122 15.8 279 8.9 100460 88
2002-11-12 08:29:29 51°12.711 2°49.096 15.6 274 8.9 100460 88
2002-11-12 08:29:34 51°12.704 2°49.075 15.5 269 8.9 100470 88
2002-11-12 08:29:39 51°12.697 2°49.053 15.9 269 8.9 100470 88
2002-11-12 08:29:43 51°12.692 2°49.037 16.2 271 8.9 100460 88
2002-11-12 08:29:49 51°12.684 2°49.011 16.6 279 8.9 100460 88
2002-11-12 08:29:54 51°12.677 2°48.99 17.1 275 8.9 100470 88
2002-11-12 08:29:58 51°12.672 2°48.973 17 275 8.9 100470 88
2002-11-12 08:30:03 51°12.665 2°48.952 17.2 282 8.9 100460 88
2002-11-12 08:30:09 51°12.657 2°48.926 15.2 276 8.9 100460 88
2002-11-12 08:30:14 51°12.65 2°48.905 16.8 283 8.9 100460 88
2002-11-12 08:30:19 51°12.643 2°48.884 13.8 276 8.9 100460 88
2002-11-12 08:30:23 51°12.638 2°48.867 15.1 269 8.9 100460 88
2002-11-12 08:30:27 51°12.632 2°48.85 16.6 269 8.9 100460 88
2002-11-12 08:30:34 51°12.622 2°48.821 18 271 8.9 100460 88
2002-11-12 08:30:39 51°12.615 2°48.799 16.1 275 8.9 100460 88
2002-11-12 08:30:43 51°12.61 2°48.782 15.9 274 9 100460 88
2002-11-12 08:30:49 51°12.602 2°48.757 15.8 273 9 100460 88
2002-11-12 08:30:54 51°12.595 2°48.736 15.5 278 8.9 100470 88
2002-11-12 08:30:59 51°12.588 2°48.715 14 280 8.9 100470 88
2002-11-12 08:31:03 51°12.582 2°48.698 13.4 282 8.9 100450 88
2002-11-12 08:31:09 51°12.574 2°48.672 13.4 272 8.9 100450 88
2002-11-12 08:31:14 51°12.567 2°48.651 13.5 277 8.9 100460 88
2002-11-12 08:31:19 51°12.56 2°48.63 14 276 8.9 100460 88
2002-11-12 08:31:23 51°12.555 2°48.613 16.5 281 8.9 100460 88
2002-11-12 08:31:29 51°12.546 2°48.587 16.7 275 8.9 100460 88
2002-11-12 08:31:33 51°12.541 2°48.57 17.7 288 9 100460 89
2002-11-12 08:31:39 51°12.533 2°48.544 15.9 279 9 100460 89
2002-11-12 08:31:43 51°12.527 2°48.527 14.4 276 9 100470 89
2002-11-12 08:31:49 51°12.519 2°48.501 15.6 274 9 100470 89
2002-11-12 08:31:54 51°12.512 2°48.48 15.8 274 9 100460 89
2002-11-12 08:31:59 51°12.505 2°48.459 15.5 271 9 100460 89
2002-11-12 08:32:03 51°12.499 2°48.442 15.8 272 9 100450 89
2002-11-12 08:32:09 51°12.491 2°48.416 17 271 9 100450 89
2002-11-12 08:32:14 51°12.484 2°48.395 16.6 270 9 100460 89
2002-11-12 08:32:19 51°12.477 2°48.374 16.5 277 9 100460 89
2002-11-12 08:32:23 51°12.472 2°48.357 17 272 9 100470 89
2002-11-12 08:32:29 51°12.464 2°48.331 14.4 274 9 100470 89
2002-11-12 08:32:34 51°12.457 2°48.31 15.3 268 9 100450 88
2002-11-12 08:32:39 51°12.45 2°48.289 16.6 269 9 100450 88
2002-11-12 08:32:43 51°12.444 2°48.271 16.4 273 9 100450 88
2002-11-12 08:32:49 51°12.436 2°48.247 16.5 271 9 100450 88
2002-11-12 08:32:54 51°12.429 2°48.225 16.6 276 9 100460 88
2002-11-12 08:32:59 51°12.423 2°48.204 16.9 279 9 100460 88
2002-11-12 08:33:04 51°12.416 2°48.183 17.5 278 9 100460 88
2002-11-12 08:33:09 51°12.409 2°48.162 16.5 281 9 100460 88
2002-11-12 08:33:14 51°12.402 2°48.14 16.7 277 9 100460 88
2002-11-12 08:33:19 51°12.395 2°48.119 17.2 273 9 100460 88
2002-11-12 08:33:23 51°12.389 2°48.102 15.1 270 9 100450 88
2002-11-12 08:33:29 51°12.381 2°48.077 15.9 277 9 100450 88
2002-11-12 08:33:31 51°12.378 2°48.068 15.9 276 9 100450 88
2002-11-12 08:33:38 51°12.369 2°48.038 15.9 268 9 100450 88
2002-11-12 08:33:43 51°12.362 2°48.017 16.5 269 9 100470 88
2002-11-12 08:33:49 51°12.354 2°47.992 17.8 271 9 100470 88
2002-11-12 08:33:54 51°12.347 2°47.97 18.1 273 9 100460 88
2002-11-12 08:33:59 51°12.34 2°47.949 18.1 272 9 100460 88
2002-11-12 08:34:03 51°12.335 2°47.932 17.5 278 9 100460 88
2002-11-12 08:34:09 51°12.327 2°47.906 16.3 276 9 100460 88
2002-11-12 08:34:13 51°12.321 2°47.889 16.6 277 9 100460 88
2002-11-12 08:34:19 51°12.313 2°47.864 16.1 280 9 100460 88
2002-11-12 08:34:23 51°12.307 2°47.847 14.7 275 9 100420 88
2002-11-12 08:34:29 51°12.299 2°47.821 14.9 272 9 100420 88
2002-11-12 08:34:34 51°12.292 2°47.8 19.1 272 9 100440 88
2002-11-12 08:34:39 51°12.285 2°47.778 17.4 275 9 100440 88
2002-11-12 08:34:43 51°12.28 2°47.762 16.5 276 9 100460 88
2002-11-12 08:34:49 51°12.272 2°47.736 18.2 281 9 100460 88
2002-11-12 08:34:54 51°12.265 2°47.715 16.1 272 9 100470 88
2002-11-12 08:34:59 51°12.258 2°47.694 17.4 283 9 100470 88
2002-11-12 08:35:03 51°12.253 2°47.676 17 282 9 100440 88
2002-11-12 08:35:07 51°12.248 2°47.659 16.7 286 9 100440 88
2002-11-12 08:35:14 51°12.239 2°47.63 16 279 9 100440 88
2002-11-12 08:35:19 51°12.232 2°47.609 14.9 279 9 100440 88
2002-11-12 08:35:23 51°12.226 2°47.592 17.3 276 9 100440 88
2002-11-12 08:35:29 51°12.218 2°47.566 17 275 9 100440 88
2002-11-12 08:35:33 51°12.213 2°47.549 17 277 9 100450 88
2002-11-12 08:35:39 51°12.204 2°47.523 16.4 272 9 100450 88
2002-11-12 08:35:43 51°12.199 2°47.506 15.7 277 9 100450 88
2002-11-12 08:35:49 51°12.191 2°47.481 16.8 274 9 100450 88
2002-11-12 08:35:54 51°12.184 2°47.46 17.1 279 9 100450 88
2002-11-12 08:35:59 51°12.177 2°47.438 15.7 275 9 100450 88
2002-11-12 08:36:03 51°12.172 2°47.421 16.6 276 9.1 100460 88
2002-11-12 08:36:09 51°12.164 2°47.395 14.7 277 9.1 100460 88
2002-11-12 08:36:14 51°12.157 2°47.374 15.8 276 9.1 100450 88
2002-11-12 08:36:19 51°12.15 2°47.352 15.7 273 9.1 100450 88
2002-11-12 08:36:23 51°12.145 2°47.335 15.3 280 9.1 100440 88
2002-11-12 08:36:29 51°12.137 2°47.31 14.8 274 9.1 100440 88
2002-11-12 08:36:33 51°12.131 2°47.293 15.6 273 9.1 100450 88
2002-11-12 08:36:38 51°12.124 2°47.272 14.3 279 9.1 100450 88
2002-11-12 08:36:43 51°12.117 2°47.251 14.3 276 9.1 100450 88
2002-11-12 08:36:49 51°12.109 2°47.225 16.9 274 9.1 100450 88
2002-11-12 08:36:54 51°12.102 2°47.203 16.4 278 9.1 100450 88
2002-11-12 08:36:59 51°12.095 2°47.181 16 280 9.1 100450 88
2002-11-12 08:37:03 51°12.09 2°47.164 16.8 276 9.1 100450 88
2002-11-12 08:37:09 51°12.082 2°47.138 15.2 274 9.1 100450 88
2002-11-12 08:37:14 51°12.075 2°47.117 16.6 277 9.1 100460 88
2002-11-12 08:37:19 51°12.068 2°47.096 15.9 276 9.1 100460 88
2002-11-12 08:37:23 51°12.063 2°47.079 17.2 270 9.1 100450 88
2002-11-12 08:37:29 51°12.054 2°47.054 17.5 272 9.1 100450 88
2002-11-12 08:37:33 51°12.049 2°47.037 16.6 276 9.1 100450 88
2002-11-12 08:37:39 51°12.041 2°47.011 15.2 276 9.1 100450 88
2002-11-12 08:37:43 51°12.035 2°46.994 15.1 278 9.1 100440 88
2002-11-12 08:37:49 51°12.027 2°46.969 14.4 276 9.1 100440 88
2002-11-12 08:37:53 51°12.021 2°46.952 14.2 278 9.1 100440 88
2002-11-12 08:37:59 51°12.013 2°46.927 16.5 275 9.1 100440 88
2002-11-12 08:38:03 51°12.008 2°46.91 16.7 285 9.1 100440 88
2002-11-12 08:38:09 51°12 2°46.885 17.9 284 9.1 100440 88
2002-11-12 08:38:14 51°11.993 2°46.864 15 280 9.1 100450 88
2002-11-12 08:38:19 51°11.986 2°46.843 14.4 279 9.1 100450 88
2002-11-12 08:38:23 51°11.98 2°46.826 14.3 277 9.1 100450 88
2002-11-12 08:38:29 51°11.972 2°46.801 14.9 271 9.1 100450 88
2002-11-12 08:38:33 51°11.967 2°46.784 17.4 272 9.1 100450 88
2002-11-12 08:38:39 51°11.959 2°46.758 17.2 276 9.1 100450 88
2002-11-12 08:38:43 51°11.953 2°46.741 18.9 275 9.1 100450 88
2002-11-12 08:38:49 51°11.945 2°46.716 18.2 278 9.1 100450 88
2002-11-12 08:38:53 51°11.94 2°46.699 16.6 273 9.1 100440 89
2002-11-12 08:38:59 51°11.932 2°46.674 16.4 277 9.1 100440 89
2002-11-12 08:39:03 51°11.927 2°46.657 16.2 275 9.1 100440 88
2002-11-12 08:39:09 51°11.919 2°46.631 16.6 282 9.1 100440 88
2002-11-12 08:39:14 51°11.912 2°46.61 15.5 272 9.1 100430 88
2002-11-12 08:39:19 51°11.905 2°46.589 15.2 268 9.1 100430 88
2002-11-12 08:39:24 51°11.898 2°46.568 15.2 274 9.1 100450 88
2002-11-12 08:39:29 51°11.892 2°46.547 17.5 281 9.1 100450 88
2002-11-12 08:39:33 51°11.887 2°46.53 17 281 9.1 100430 88
2002-11-12 08:39:39 51°11.879 2°46.505 15.7 274 9.1 100430 88
2002-11-12 08:39:43 51°11.873 2°46.488 17 277 9.1 100450 88
2002-11-12 08:39:49 51°11.865 2°46.462 15.6 281 9.1 100450 88
2002-11-12 08:39:54 51°11.858 2°46.441 16.3 273 9.1 100440 88
2002-11-12 08:39:59 51°11.851 2°46.42 18.2 278 9.1 100440 88
2002-11-12 08:40:03 51°11.846 2°46.403 17.1 279 9.1 100430 88
2002-11-12 08:40:09 51°11.838 2°46.378 14.3 283 9.1 100430 88
2002-11-12 08:40:13 51°11.832 2°46.36 14.6 281 9.1 100430 88
2002-11-12 08:40:19 51°11.824 2°46.334 15.5 276 9.1 100430 88
2002-11-12 08:40:23 51°11.819 2°46.317 15.7 278 9.1 100440 88
2002-11-12 08:40:29 51°11.81 2°46.292 17.3 276 9.1 100440 88
2002-11-12 08:40:34 51°11.804 2°46.271 15.8 275 9.1 100430 88
2002-11-12 08:40:39 51°11.797 2°46.249 16.4 279 9.1 100430 88
2002-11-12 08:40:43 51°11.792 2°46.233 14.7 274 9.1 100440 88
2002-11-12 08:40:49 51°11.784 2°46.207 15.6 280 9.1 100440 88
2002-11-12 08:40:53 51°11.778 2°46.19 15.3 281 9.1 100430 88
2002-11-12 08:40:59 51°11.77 2°46.164 16.2 274 9.1 100430 88
2002-11-12 08:41:03 51°11.765 2°46.147 16.9 273 9.1 100430 88
2002-11-12 08:41:09 51°11.757 2°46.122 17.4 273 9.1 100430 88
2002-11-12 08:41:13 51°11.751 2°46.104 17.4 277 9.1 100430 88
2002-11-12 08:41:19 51°11.743 2°46.079 17.3 272 9.1 100430 88
2002-11-12 08:41:23 51°11.738 2°46.062 16.8 271 9.1 100430 88
2002-11-12 08:41:29 51°11.73 2°46.037 17.9 275 9.1 100430 88
2002-11-12 08:41:34 51°11.723 2°46.016 17.9 276 9.1 100440 88
2002-11-12 08:41:39 51°11.716 2°45.995 16.7 276 9.1 100440 88
2002-11-12 08:41:43 51°11.711 2°45.978 17.9 277 9.1 100420 88
2002-11-12 08:41:49 51°11.703 2°45.952 16.5 269 9.1 100420 88
2002-11-12 08:41:54 51°11.696 2°45.931 18.6 274 9.1 100430 88
2002-11-12 08:41:59 51°11.69 2°45.91 16.7 277 9.1 100430 88
2002-11-12 08:42:04 51°11.683 2°45.889 16.6 277 9.1 100420 88
2002-11-12 08:42:09 51°11.676 2°45.868 16 277 9.1 100420 88
2002-11-12 08:42:14 51°11.669 2°45.847 16.1 274 9.1 100420 88
2002-11-12 08:42:19 51°11.663 2°45.826 17.2 277 9.1 100420 88
2002-11-12 08:42:23 51°11.657 2°45.809 16.3 277 9.1 100420 88
2002-11-12 08:42:29 51°11.649 2°45.784 18.5 287 9.1 100420 88
2002-11-12 08:42:33 51°11.644 2°45.767 16.7 284 9.1 100430 88
2002-11-12 08:42:39 51°11.636 2°45.741 16.1 271 9.1 100430 88
2002-11-12 08:42:43 51°11.631 2°45.725 17.9 274 9.1 100420 88
2002-11-12 08:42:49 51°11.623 2°45.699 16.1 272 9.1 100420 88
2002-11-12 08:42:53 51°11.618 2°45.682 16.5 274 9.1 100430 88
2002-11-12 08:42:59 51°11.61 2°45.657 15.9 274 9.1 100430 88
2002-11-12 08:43:03 51°11.604 2°45.64 16.5 275 9.1 100430 88
2002-11-12 08:43:09 51°11.596 2°45.615 15.9 275 9.1 100430 88
2002-11-12 08:43:13 51°11.591 2°45.598 17 275 9.1 100430 88
2002-11-12 08:43:19 51°11.583 2°45.572 16.6 276 9.1 100430 88
2002-11-12 08:43:23 51°11.578 2°45.555 16.8 273 9.1 100430 88
2002-11-12 08:43:29 51°11.57 2°45.53 17.8 277 9.1 100430 88
2002-11-12 08:43:34 51°11.564 2°45.509 18 279 9.1 100430 88
2002-11-12 08:43:39 51°11.557 2°45.487 18.3 276 9.1 100430 88
2002-11-12 08:43:43 51°11.551 2°45.471 16.1 272 9.1 100430 88
2002-11-12 08:43:49 51°11.544 2°45.445 18.1 276 9.1 100430 88
2002-11-12 08:43:53 51°11.539 2°45.427 16.8 282 9.1 100420 88
2002-11-12 08:43:58 51°11.532 2°45.406 16.5 280 9.1 100420 88
2002-11-12 08:44:03 51°11.526 2°45.384 16.4 282 9.1 100420 88
2002-11-12 08:44:09 51°11.519 2°45.358 14.8 272 9.1 100420 88
2002-11-12 08:44:14 51°11.513 2°45.336 17.3 278 9.1 100420 88
2002-11-12 08:44:19 51°11.507 2°45.314 16.7 277 9.1 100420 88
2002-11-12 08:44:23 51°11.503 2°45.296 16.7 280 9.1 100420 88
2002-11-12 08:44:29 51°11.496 2°45.27 16 278 9.1 100420 88
2002-11-12 08:44:33 51°11.491 2°45.252 15.1 282 9.1 100440 88
2002-11-12 08:44:39 51°11.484 2°45.225 14.8 278 9.1 100440 88
2002-11-12 08:44:43 51°11.479 2°45.208 15.6 279 9.1 100430 88
2002-11-12 08:44:49 51°11.472 2°45.181 15.1 281 9.1 100430 88
2002-11-12 08:44:54 51°11.466 2°45.159 15.3 287 9.2 100420 88
2002-11-12 08:44:59 51°11.46 2°45.137 14.3 278 9.2 100420 88
2002-11-12 08:45:03 51°11.456 2°45.12 14.2 280 9.2 100430 88
2002-11-12 08:45:09 51°11.448 2°45.093 15.4 275 9.2 100430 88
2002-11-12 08:45:13 51°11.444 2°45.076 15.9 277 9.2 100430 88
2002-11-12 08:45:19 51°11.437 2°45.049 17.6 277 9.2 100430 88
2002-11-12 08:45:23 51°11.433 2°45.031 17 278 9.2 100440 88
2002-11-12 08:45:29 51°11.426 2°45.005 16.3 280 9.2 100440 88
2002-11-12 08:45:33 51°11.421 2°44.987 16.2 282 9.2 100430 88
2002-11-12 08:45:39 51°11.414 2°44.961 16.2 278 9.2 100430 88
2002-11-12 08:45:43 51°11.41 2°44.943 16.5 277 9.2 100420 88
2002-11-12 08:45:49 51°11.403 2°44.916 18.8 271 9.2 100420 88
2002-11-12 08:45:53 51°11.398 2°44.899 18.7 276 9.2 100430 88
2002-11-12 08:45:59 51°11.392 2°44.872 18.4 279 9.2 100430 88
2002-11-12 08:46:03 51°11.388 2°44.854 18.2 277 9.3 100430 88
2002-11-12 08:46:09 51°11.381 2°44.828 19.4 278 9.3 100430 88
2002-11-12 08:46:13 51°11.377 2°44.81 17.6 274 9.3 100410 88
2002-11-12 08:46:19 51°11.371 2°44.783 19.4 276 9.3 100410 88
2002-11-12 08:46:23 51°11.367 2°44.765 18.3 280 9.2 100410 88
2002-11-12 08:46:29 51°11.36 2°44.738 16.9 278 9.2 100410 88
2002-11-12 08:46:34 51°11.355 2°44.716 16 278 9.2 100410 88
2002-11-12 08:46:39 51°11.349 2°44.694 17.1 281 9.2 100410 88
2002-11-12 08:46:43 51°11.345 2°44.676 17.7 283 9.2 100420 88
2002-11-12 08:46:49 51°11.338 2°44.649 18.8 283 9.2 100420 88
2002-11-12 08:46:54 51°11.333 2°44.626 18.5 282 9.2 100410 88
2002-11-12 08:46:59 51°11.328 2°44.604 18.5 275 9.2 100410 88
2002-11-12 08:47:03 51°11.323 2°44.586 15.8 275 9.2 100410 88
2002-11-12 08:47:09 51°11.317 2°44.559 16.1 273 9.2 100410 88
2002-11-12 08:47:14 51°11.311 2°44.536 17 280 9.2 100420 88
2002-11-12 08:47:19 51°11.306 2°44.514 17.9 283 9.2 100420 88
2002-11-12 08:47:23 51°11.302 2°44.496 17.5 285 9.2 100420 88
2002-11-12 08:47:29 51°11.295 2°44.469 19 283 9.2 100420 88
2002-11-12 08:47:34 51°11.29 2°44.446 16.5 279 9.3 100420 88
2002-11-12 08:47:39 51°11.284 2°44.424 16.7 277 9.3 100420 88
2002-11-12 08:47:43 51°11.28 2°44.406 18.2 280 9.3 100420 88
2002-11-12 08:47:49 51°11.273 2°44.379 17.6 285 9.3 100420 88
2002-11-12 08:47:54 51°11.268 2°44.356 17.4 280 9.3 100430 88
2002-11-12 08:47:59 51°11.263 2°44.334 17 282 9.3 100430 88
2002-11-12 08:48:03 51°11.259 2°44.315 15.8 284 9.3 100430 88
2002-11-12 08:48:09 51°11.252 2°44.288 15.4 280 9.3 100430 88
2002-11-12 08:48:13 51°11.248 2°44.27 17 273 9.3 100430 87
2002-11-12 08:48:19 51°11.241 2°44.243 16.1 279 9.3 100430 87
2002-11-12 08:48:23 51°11.237 2°44.225 15.9 282 9.2 100420 87
2002-11-12 08:48:29 51°11.23 2°44.197 17.2 283 9.2 100420 87
2002-11-12 08:48:34 51°11.225 2°44.175 17.2 279 9.3 100430 88
2002-11-12 08:48:39 51°11.22 2°44.152 16.5 277 9.3 100430 88
2002-11-12 08:48:43 51°11.215 2°44.134 17.4 278 9.3 100420 88
2002-11-12 08:48:49 51°11.209 2°44.106 15.3 274 9.3 100420 88
2002-11-12 08:48:54 51°11.204 2°44.084 18 278 9.3 100420 87
2002-11-12 08:48:59 51°11.198 2°44.061 17.5 280 9.3 100420 87
2002-11-12 08:49:03 51°11.194 2°44.043 17.5 278 9.3 100430 87
2002-11-12 08:49:09 51°11.188 2°44.016 15.1 280 9.3 100430 87
2002-11-12 08:49:14 51°11.182 2°43.993 15.4 277 9.3 100420 87
2002-11-12 08:49:19 51°11.177 2°43.971 17.3 281 9.3 100420 87
2002-11-12 08:49:23 51°11.172 2°43.953 14.8 282 9.3 100430 87
2002-11-12 08:49:29 51°11.166 2°43.926 17.1 285 9.3 100430 87
2002-11-12 08:49:33 51°11.161 2°43.908 15.8 283 9.3 100420 87
2002-11-12 08:49:39 51°11.155 2°43.881 17.4 284 9.3 100420 87
2002-11-12 08:49:43 51°11.151 2°43.862 15.8 281 9.3 100430 87
2002-11-12 08:49:49 51°11.144 2°43.836 15.8 279 9.3 100430 87
2002-11-12 08:49:53 51°11.14 2°43.818 18.2 281 9.3 100420 88
2002-11-12 08:49:59 51°11.133 2°43.79 15.3 279 9.3 100420 88
2002-11-12 08:50:03 51°11.129 2°43.772 15.2 277 9.3 100430 88
2002-11-12 08:50:09 51°11.122 2°43.745 15.5 283 9.3 100430 88
2002-11-12 08:50:13 51°11.118 2°43.727 15.7 282 9.3 100430 87
2002-11-12 08:50:19 51°11.111 2°43.7 14.8 280 9.3 100430 87
2002-11-12 08:50:23 51°11.107 2°43.682 14.9 280 9.3 100420 87
2002-11-12 08:50:29 51°11.1 2°43.655 15 277 9.3 100420 87
2002-11-12 08:50:34 51°11.095 2°43.632 14.5 274 9.3 100430 88
2002-11-12 08:50:39 51°11.089 2°43.61 15.5 278 9.3 100430 88
2002-11-12 08:50:43 51°11.086 2°43.593 15 280 9.3 100430 88
2002-11-12 08:50:49 51°11.081 2°43.57 14.9 284 9.3 100430 88
2002-11-12 08:50:54 51°11.078 2°43.553 15.7 292 9.3 100440 87
2002-11-12 08:50:59 51°11.076 2°43.537 15.3 299 9.3 100440 87
2002-11-12 08:51:04 51°11.075 2°43.521 15.5 298 9.3 100430 87
2002-11-12 08:51:09 51°11.075 2°43.507 11.4 305 9.3 100430 87
2002-11-12 08:51:14 51°11.076 2°43.494 8.3 308 9.3 100440 87
2002-11-12 08:51:19 51°11.078 2°43.481 3.4 323 9.3 100440 87
2002-11-12 08:51:23 51°11.08 2°43.472 3.7 318 9.3 100450 87
2002-11-12 08:51:29 51°11.085 2°43.459 8.5 354 9.3 100450 87
2002-11-12 08:51:33 51°11.088 2°43.451 10.3 6 9.3 100450 87
2002-11-12 08:51:39 51°11.093 2°43.44 9 359 9.3 100450 87
2002-11-12 08:51:43 51°11.097 2°43.434 8.5   9.3 100470 87
2002-11-12 08:51:49 51°11.103 2°43.426 10.2 18 9.3 100470 87
2002-11-12 08:51:53 51°11.108 2°43.422 10.7 21 9.3 100480 87
2002-11-12 08:51:59 51°11.115 2°43.416 11.9 28 9.3 100480 87
2002-11-12 08:52:03 51°11.12 2°43.413 11.2 25 9.3 100490 87
2002-11-12 08:52:09 51°11.127 2°43.41 10.5 43 9.3 100490 87
2002-11-12 08:52:13 51°11.133 2°43.409 9.9 40 9.3 100490 87
2002-11-12 08:52:19 51°11.14 2°43.409 10.4 50 9.3 100490 87
2002-11-12 08:52:23 51°11.145 2°43.409 9.5 53 9.3 100490 87
2002-11-12 08:52:29 51°11.153 2°43.411 10.2 67 9.3 100490 87
2002-11-12 08:52:31 51°11.155 2°43.412 9.7 69 9.3 100500 87
2002-11-12 08:52:39 51°11.165 2°43.416 8.7 82 9.3 100500 87
2002-11-12 08:52:43 51°11.169 2°43.419 8.6 91 9.4 100500 88
2002-11-12 08:52:49 51°11.175 2°43.425 10.1 102 9.4 100500 88
2002-11-12 08:52:54 51°11.18 2°43.43 10.9 102 9.3 100500 87
2002-11-12 08:52:59 51°11.185 2°43.437 11.7 108 9.3 100500 87
2002-11-12 08:53:04 51°11.189 2°43.443 11.5 113 9.3 100510 87
2002-11-12 08:53:09 51°11.192 2°43.45 12.2 120 9.3 100510 87
2002-11-12 08:53:14 51°11.196 2°43.457 11.1 126 9.3 100500 87
2002-11-12 08:53:19 51°11.198 2°43.465 10.7 130 9.3 100500 87
2002-11-12 08:53:23 51°11.2 2°43.471 11.7 134 9.3 100490 87
2002-11-12 08:53:29 51°11.202 2°43.48 11.7 140 9.3 100490 87
2002-11-12 08:53:34 51°11.204 2°43.488 11.2 133 9.4 100490 87
2002-11-12 08:53:39 51°11.206 2°43.496 12 134 9.4 100490 87
2002-11-12 08:53:43 51°11.207 2°43.503 11.5 141 9.4 100480 87
2002-11-12 08:53:49 51°11.209 2°43.513 10.8 147 9.4 100480 87
2002-11-12 08:53:53 51°11.21 2°43.521 10.3 148 9.4 100480 87
2002-11-12 08:53:59 51°11.212 2°43.531 13.8 143 9.4 100480 87
2002-11-12 08:54:03 51°11.214 2°43.539 10.9 141 9.4 100490 87
2002-11-12 08:54:09 51°11.216 2°43.55 12.1 145 9.4 100490 87
2002-11-12 08:54:14 51°11.217 2°43.56 11.2 148 9.4 100480 87
2002-11-12 08:54:19 51°11.219 2°43.569 11.1 153 9.4 100480 87
2002-11-12 08:54:23 51°11.22 2°43.577 11 145 9.4 100480 87
2002-11-12 08:54:29 51°11.221 2°43.589 11.9 152 9.4 100480 87
2002-11-12 08:54:34 51°11.222 2°43.598 12.6 150 9.4 100460 87
2002-11-12 08:54:39 51°11.223 2°43.608 13.5 155 9.4 100460 87
2002-11-12 08:54:43 51°11.223 2°43.615 12.6 159 9.4 100470 87
2002-11-12 08:54:49 51°11.222 2°43.626 13.2 166 9.4 100470 87
2002-11-12 08:54:54 51°11.222 2°43.636 12.7 169 9.4 100460 87
2002-11-12 08:54:59 51°11.221 2°43.645 13 162 9.4 100460 87
2002-11-12 08:55:03 51°11.22 2°43.652 12.8 165 9.4 100450 87
2002-11-12 08:55:09 51°11.219 2°43.663 9.9 178 9.4 100450 87
2002-11-12 08:55:14 51°11.218 2°43.672 12.1 176 9.3 100460 87
2002-11-12 08:55:19 51°11.216 2°43.68 11.6 181 9.3 100460 87
2002-11-12 08:55:23 51°11.215 2°43.687 12.2 179 9.3 100450 87
2002-11-12 08:55:29 51°11.212 2°43.697 12.7 183 9.3 100450 87
2002-11-12 08:55:33 51°11.211 2°43.704 12.2 181 9.4 100470 87
2002-11-12 08:55:39 51°11.208 2°43.713 12.1 180 9.4 100470 87
2002-11-12 08:55:43 51°11.206 2°43.72 11.6 184 9.4 100460 87
2002-11-12 08:55:49 51°11.203 2°43.729 11.1 191 9.4 100460 87
2002-11-12 08:55:54 51°11.201 2°43.736 12.5 195 9.3 100460 87
2002-11-12 08:55:59 51°11.198 2°43.743 11.6 198 9.3 100460 87
2002-11-12 08:56:03 51°11.195 2°43.747 10.2 189 9.3 100440 87
2002-11-12 08:56:09 51°11.193 2°43.754 10.9 198 9.3 100440 87
2002-11-12 08:56:14 51°11.191 2°43.757 12.4 204 9.3 100450 87
2002-11-12 08:56:19 51°11.19 2°43.761 11.5 206 9.3 100450 87
2002-11-12 08:56:23 51°11.19 2°43.762 10.4 196 9.3 100450 87
2002-11-12 08:56:29 51°11.191 2°43.764 10.8 195 9.3 100450 87
2002-11-12 08:56:34 51°11.193 2°43.764 9.3 205 9.3 100460 87
2002-11-12 08:56:39 51°11.195 2°43.763 10.5 193 9.3 100460 87
2002-11-12 08:56:43 51°11.196 2°43.763 9.7 198 9.3 100460 87
2002-11-12 08:56:50 51°11.199 2°43.763 10.3 195 9.3 100460 87
2002-11-12 08:56:55 51°11.201 2°43.763 10.9 192 9.3 100470 87
2002-11-12 08:57:00 51°11.202 2°43.764 10.4 192 9.3 100470 87
2002-11-12 08:57:05 51°11.203 2°43.765 9.9 189 9.3 100470 87
2002-11-12 08:57:09 51°11.204 2°43.766 12.1 179 9.3 100470 87
2002-11-12 08:57:14 51°11.205 2°43.768 12.5 177 9.3 100470 87
2002-11-12 08:57:19 51°11.205 2°43.769 12.6 176 9.3 100470 87
2002-11-12 08:57:23 51°11.206 2°43.771 12 172 9.3 100460 87
2002-11-12 08:57:30 51°11.207 2°43.773 13.2 168 9.3 100460 87
2002-11-12 08:57:35 51°11.208 2°43.775 11.7 165 9.3 100450 87
2002-11-12 08:57:39 51°11.209 2°43.777 12.4 166 9.3 100450 87
2002-11-12 08:57:44 51°11.209 2°43.78 12.1 169 9.3 100460 87
2002-11-12 08:57:49 51°11.21 2°43.782 9.7 169 9.3 100460 87
2002-11-12 08:57:54 51°11.211 2°43.785 13 164 9.3 100450 87
2002-11-12 08:57:59 51°11.211 2°43.788 13.5 175 9.3 100450 87
2002-11-12 08:58:03 51°11.212 2°43.79 13.4 167 9.3 100460 87
2002-11-12 08:58:09 51°11.213 2°43.794 11.4 159 9.3 100460 87
2002-11-12 08:58:14 51°11.214 2°43.797 14 160 9.4 100460 87
2002-11-12 08:58:19 51°11.214 2°43.8 13.6 158 9.4 100460 87
2002-11-12 08:58:23 51°11.215 2°43.802 11.2 160 9.3 100460 87
2002-11-12 08:58:29 51°11.216 2°43.805 11.1 164 9.3 100460 87
2002-11-12 08:58:34 51°11.217 2°43.808 11.3 161 9.4 100450 87
2002-11-12 08:58:39 51°11.217 2°43.81 13.5 164 9.4 100450 87
2002-11-12 08:58:43 51°11.218 2°43.812 12.7 169 9.3 100450 87
2002-11-12 08:58:49 51°11.219 2°43.815 11.3 166 9.3 100450 87
2002-11-12 08:58:54 51°11.221 2°43.818 12.7 167 9.4 100460 87
2002-11-12 08:58:59 51°11.222 2°43.82 11.5 162 9.4 100460 87
2002-11-12 08:59:03 51°11.223 2°43.822 11.5 153 9.3 100460 87
2002-11-12 08:59:07 51°11.224 2°43.824 9.3 164 9.3 100460 87
2002-11-12 08:59:14 51°11.225 2°43.827 12.1 164 9.3 100460 87
2002-11-12 08:59:19 51°11.225 2°43.83 11.7 158 9.3 100460 87
2002-11-12 08:59:23 51°11.226 2°43.831 11.1 161 9.3 100460 87
2002-11-12 08:59:29 51°11.225 2°43.833 10.5 159 9.3 100460 87
2002-11-12 08:59:33 51°11.225 2°43.835 10.9 162 9.3 100460 87
2002-11-12 08:59:39 51°11.225 2°43.837 11.1 162 9.3 100460 87
2002-11-12 08:59:43 51°11.227 2°43.839 10.8 161 9.3 100460 87
2002-11-12 08:59:49 51°11.227 2°43.842 11.6 166 9.3 100460 87
2002-11-12 08:59:54 51°11.228 2°43.844 11.5 160 9.4 100460 87
2002-11-12 08:59:59 51°11.228 2°43.846 13.8 161 9.4 100460 87
2002-11-12 09:00:03 51°11.229 2°43.847 13.4 158 9.4 100460 87
2002-11-12 09:00:09 51°11.23 2°43.85 12.2 158 9.4 100460 87
2002-11-12 09:00:14 51°11.232 2°43.851 10.4 160 9.4 100470 87
2002-11-12 09:00:19 51°11.233 2°43.853 10.5 153 9.4 100470 87
2002-11-12 09:00:23 51°11.234 2°43.855 10.3 158 9.4 100450 87
2002-11-12 09:00:29 51°11.234 2°43.857 10 159 9.4 100450 87
2002-11-12 09:00:33 51°11.235 2°43.859 9.4 159 9.4 100460 87
2002-11-12 09:00:39 51°11.236 2°43.861 11.5 158 9.4 100460 87
2002-11-12 09:00:43 51°11.237 2°43.862 11.6 144 9.4 100460 87
2002-11-12 09:00:49 51°11.238 2°43.864 11 157 9.4 100460 87
2002-11-12 09:00:53 51°11.239 2°43.866 11.1 157 9.4 100470 87
2002-11-12 09:00:59 51°11.24 2°43.868 10.2 152 9.4 100470 87
2002-11-12 09:01:03 51°11.241 2°43.87 11.8 156 9.4 100470 87
2002-11-12 09:01:09 51°11.242 2°43.872 12.3 155 9.4 100470 87
2002-11-12 09:01:14 51°11.243 2°43.874 10.5 149 9.4 100460 87
2002-11-12 09:01:19 51°11.244 2°43.876 12.9 150 9.4 100460 87
2002-11-12 09:01:23 51°11.245 2°43.877 13.3 144 9.4 100470 87
2002-11-12 09:01:29 51°11.246 2°43.879 11.3 146 9.4 100470 87
2002-11-12 09:01:34 51°11.248 2°43.881 11.7 150 9.4 100460 87
2002-11-12 09:01:39 51°11.249 2°43.883 9.3 148 9.4 100460 87
2002-11-12 09:01:43 51°11.25 2°43.884 10.6 142 9.4 100460 87
2002-11-12 09:01:49 51°11.251 2°43.887 9.3 156 9.4 100460 87
2002-11-12 09:01:54 51°11.252 2°43.888 9.6 150 9.4 100450 87
2002-11-12 09:01:59 51°11.253 2°43.89 12.8 155 9.4 100450 87
2002-11-12 09:02:03 51°11.254 2°43.892 11.9 153 9.4 100460 87
2002-11-12 09:02:09 51°11.256 2°43.894 10.9 154 9.4 100460 87
2002-11-12 09:02:14 51°11.257 2°43.896 11.6 149 9.4 100460 87
2002-11-12 09:02:19 51°11.258 2°43.898 10.8 149 9.4 100460 87
2002-11-12 09:02:23 51°11.259 2°43.899 10.9 145 9.5 100460 87
2002-11-12 09:02:29 51°11.26 2°43.901 11.6 152 9.5 100460 87
2002-11-12 09:02:33 51°11.261 2°43.902 11.9 157 9.4 100450 87
2002-11-12 09:02:38 51°11.263 2°43.904 10.7 156 9.4 100450 87
2002-11-12 09:02:43 51°11.264 2°43.906 12.5 147 9.4 100460 87
2002-11-12 09:02:49 51°11.265 2°43.908 12.4 149 9.4 100460 87
2002-11-12 09:02:54 51°11.266 2°43.91 9.8 151 9.4 100460 87
2002-11-12 09:02:59 51°11.267 2°43.911 10.7 147 9.4 100460 87
2002-11-12 09:03:03 51°11.268 2°43.913 11.5 150 9.4 100450 87
2002-11-12 09:03:09 51°11.27 2°43.915 11.2 155 9.4 100450 87
2002-11-12 09:03:14 51°11.271 2°43.916 10.7 156 9.4 100450 87
2002-11-12 09:03:19 51°11.272 2°43.918 10.6 158 9.4 100450 87
2002-11-12 09:03:23 51°11.273 2°43.919 10.1 143 9.4 100450 87
2002-11-12 09:03:29 51°11.274 2°43.921 11.5 150 9.4 100450 87
2002-11-12 09:03:33 51°11.275 2°43.922 11.2 150 9.4 100460 87
2002-11-12 09:03:39 51°11.277 2°43.924 12.4 149 9.4 100460 87
2002-11-12 09:03:43 51°11.278 2°43.926 11.1 150 9.4 100470 87
2002-11-12 09:03:49 51°11.279 2°43.927 11.7 140 9.4 100470 87
2002-11-12 09:03:54 51°11.28 2°43.929 10.5 145 9.4 100460 87
2002-11-12 09:03:59 51°11.282 2°43.93 9.6 141 9.4 100460 87
2002-11-12 09:04:03 51°11.283 2°43.932 11.7 144 9.4 100460 87
2002-11-12 09:04:09 51°11.284 2°43.934 11.4 141 9.4 100460 87
2002-11-12 09:04:13 51°11.285 2°43.935 11.5 141 9.4 100450 87
2002-11-12 09:04:19 51°11.287 2°43.937 10.2 144 9.4 100450 87
2002-11-12 09:04:23 51°11.288 2°43.938 10.9 144 9.5 100460 87
2002-11-12 09:04:28 51°11.289 2°43.939 11.8 149 9.5 100460 87
2002-11-12 09:04:34 51°11.29 2°43.941 11.1 154 9.4 100460 87
2002-11-12 09:04:39 51°11.292 2°43.943 12.4 143 9.4 100460 87
2002-11-12 09:04:43 51°11.293 2°43.944 12.8 143 9.4 100460 87
2002-11-12 09:04:49 51°11.294 2°43.946 10.1 136 9.4 100460 87
2002-11-12 09:04:54 51°11.296 2°43.947 10.2 129 9.4 100460 87
2002-11-12 09:04:59 51°11.297 2°43.949 10.8 140 9.4 100460 87
2002-11-12 09:05:03 51°11.298 2°43.95 10.5 131 9.4 100450 87
2002-11-12 09:05:09 51°11.299 2°43.952 10.3 133 9.4 100450 87
2002-11-12 09:05:14 51°11.301 2°43.953 10.6 143 9.4 100450 87
2002-11-12 09:05:19 51°11.302 2°43.955 9.8 133 9.4 100450 87
2002-11-12 09:05:22 51°11.303 2°43.956 10.5 136 9.4 100460 87
2002-11-12 09:05:29 51°11.304 2°43.958 10.1 142 9.4 100460 87
2002-11-12 09:05:34 51°11.306 2°43.96 9.6 142 9.5 100460 87
2002-11-12 09:05:39 51°11.307 2°43.962 9.3 148 9.5 100460 87
2002-11-12 09:05:44 51°11.308 2°43.963 10 149 9.5 100470 87
2002-11-12 09:05:49 51°11.309 2°43.965 11 145 9.5 100470 87
2002-11-12 09:05:53 51°11.31 2°43.966 11.6 145 9.5 100460 87
2002-11-12 09:05:58 51°11.311 2°43.968 10.4 139 9.5 100460 87
2002-11-12 09:06:03 51°11.312 2°43.968 9.7 133 9.5 100460 87
2002-11-12 09:06:08 51°11.314 2°43.97 10.3 136 9.5 100460 87
2002-11-12 09:06:13 51°11.315 2°43.971 9 145 9.5 100460 87
2002-11-12 09:06:19 51°11.316 2°43.973 11.5 147 9.5 100460 87
2002-11-12 09:06:23 51°11.317 2°43.974 10.5 147 9.5 100460 87
2002-11-12 09:06:29 51°11.319 2°43.976 10.4 135 9.5 100460 87
2002-11-12 09:06:34 51°11.32 2°43.978 10 137 9.5 100460 87
2002-11-12 09:06:39 51°11.321 2°43.98 9.6 141 9.5 100460 87
2002-11-12 09:06:44 51°11.322 2°43.982 11.1 148 9.5 100460 87
2002-11-12 09:06:49 51°11.324 2°43.983 9.7 143 9.5 100460 87
2002-11-12 09:06:54 51°11.325 2°43.985 10.6 139 9.5 100460 87
2002-11-12 09:06:59 51°11.326 2°43.986 10.8 145 9.5 100460 87
2002-11-12 09:07:03 51°11.327 2°43.988 11 140 9.5 100460 87
2002-11-12 09:07:09 51°11.328 2°43.989 9.5 142 9.5 100460 87
2002-11-12 09:07:14 51°11.329 2°43.991 10.2 141 9.5 100460 87
2002-11-12 09:07:19 51°11.331 2°43.993 11.3 140 9.5 100460 87
2002-11-12 09:07:23 51°11.332 2°43.994 9.5 137 9.5 100470 87
2002-11-12 09:07:29 51°11.333 2°43.995 7.9 136 9.5 100470 87
2002-11-12 09:07:34 51°11.334 2°43.996 10.8 137 9.5 100460 87
2002-11-12 09:07:39 51°11.335 2°43.997 9.1 136 9.5 100460 87
2002-11-12 09:07:43 51°11.337 2°43.998 9.8 147 9.5 100460 87
2002-11-12 09:07:49 51°11.338 2°43.999 10.2 135 9.5 100460 87
2002-11-12 09:07:54 51°11.339 2°44.001 8.7 154 9.5 100460 87
2002-11-12 09:07:58 51°11.34 2°44.002 10.1 142 9.5 100460 87
2002-11-12 09:08:03 51°11.341 2°44.004 12.1 157 9.5 100460 87
2002-11-12 09:08:07 51°11.342 2°44.006 10.8 154 9.5 100460 87
2002-11-12 09:08:14 51°11.343 2°44.009 10.2 151 9.5 100460 87
2002-11-12 09:08:19 51°11.344 2°44.011 11.5 153 9.5 100460 87
2002-11-12 09:08:23 51°11.345 2°44.013 11.3 158 9.5 100460 87
2002-11-12 09:08:29 51°11.346 2°44.016 12.6 164 9.5 100460 87
2002-11-12 09:08:34 51°11.347 2°44.018 10.9 164 9.5 100460 87
2002-11-12 09:08:39 51°11.348 2°44.021 12 160 9.5 100460 87
2002-11-12 09:08:43 51°11.349 2°44.022 11.5 156 9.5 100460 87
2002-11-12 09:08:49 51°11.35 2°44.025 10.5 159 9.5 100460 87
2002-11-12 09:08:54 51°11.351 2°44.027 8.9 158 9.5 100460 87
2002-11-12 09:08:59 51°11.352 2°44.03 10.7 160 9.5 100460 87
2002-11-12 09:09:03 51°11.352 2°44.031 11.3 155 9.5 100450 87
2002-11-12 09:09:09 51°11.353 2°44.034 10.6 151 9.5 100450 87
2002-11-12 09:09:14 51°11.354 2°44.036 11.7 148 9.5 100460 87
2002-11-12 09:09:19 51°11.355 2°44.039 9.8 147 9.5 100460 87
2002-11-12 09:09:23 51°11.356 2°44.04 9.9 157 9.5 100470 87
2002-11-12 09:09:27 51°11.357 2°44.042 10.3 158 9.5 100470 87
2002-11-12 09:09:33 51°11.358 2°44.044 11.2 158 9.5 100460 87
2002-11-12 09:09:39 51°11.359 2°44.046 11.7 153 9.5 100460 87
2002-11-12 09:09:43 51°11.359 2°44.048 11.4 157 9.5 100460 87
2002-11-12 09:09:49 51°11.361 2°44.05 10.7 163 9.5 100460 87
2002-11-12 09:09:54 51°11.362 2°44.052 9.8 155 9.5 100470 87
2002-11-12 09:09:59 51°11.363 2°44.054 9.3 159 9.5 100470 87
2002-11-12 09:10:03 51°11.363 2°44.056 10.2 150 9.5 100460 87
2002-11-12 09:10:09 51°11.365 2°44.058 9.8 151 9.5 100460 87
2002-11-12 09:10:14 51°11.366 2°44.06 9.2 148 9.5 100470 87
2002-11-12 09:10:19 51°11.367 2°44.062 9.5 153 9.5 100470 87
2002-11-12 09:10:24 51°11.368 2°44.064 9.9 154 9.5 100470 87
2002-11-12 09:10:29 51°11.369 2°44.065 12 156 9.5 100470 87
2002-11-12 09:10:33 51°11.37 2°44.067 10.9 152 9.5 100460 87
2002-11-12 09:10:39 51°11.371 2°44.069 11.7 144 9.5 100460 87
2002-11-12 09:10:43 51°11.372 2°44.07 11.8 147 9.6 100460 87
2002-11-12 09:10:49 51°11.374 2°44.072 12.3 155 9.6 100460 87
2002-11-12 09:10:54 51°11.375 2°44.074 11.9 152 9.6 100460 87
2002-11-12 09:10:59 51°11.376 2°44.075 12.1 158 9.6 100460 87
2002-11-12 09:11:03 51°11.377 2°44.077 10.8 142 9.6 100460 87
2002-11-12 09:11:09 51°11.379 2°44.079 9.1 155 9.6 100460 87
2002-11-12 09:11:14 51°11.38 2°44.081 9.9 141 9.5 100460 87
2002-11-12 09:11:19 51°11.381 2°44.082 9.2 157 9.5 100460 87
2002-11-12 09:11:23 51°11.382 2°44.084 10.3 155 9.5 100450 87
2002-11-12 09:11:27 51°11.383 2°44.085 11.2 155 9.5 100450 87
2002-11-12 09:11:33 51°11.384 2°44.087 11.2 156 9.6 100460 87
2002-11-12 09:11:39 51°11.385 2°44.089 8.6 148 9.6 100460 87
2002-11-12 09:11:43 51°11.386 2°44.09 9.4 147 9.5 100460 87
2002-11-12 09:11:49 51°11.388 2°44.092 11.2 144 9.5 100460 87
2002-11-12 09:11:54 51°11.389 2°44.093 11.7 145 9.5 100460 87
2002-11-12 09:11:59 51°11.39 2°44.095 11.2 143 9.5 100460 87
2002-11-12 09:12:03 51°11.391 2°44.096 10.4 150 9.6 100450 87
2002-11-12 09:12:09 51°11.392 2°44.098 10.4 148 9.6 100450 87
2002-11-12 09:12:14 51°11.393 2°44.1 11.5 149 9.6 100460 87
2002-11-12 09:12:19 51°11.394 2°44.101 11.1 146 9.6 100460 87
2002-11-12 09:12:23 51°11.395 2°44.103 10.6 150 9.6 100450 87
2002-11-12 09:12:29 51°11.396 2°44.104 9.8 150 9.6 100450 87
2002-11-12 09:12:34 51°11.397 2°44.106 9.7 151 9.6 100460 87
2002-11-12 09:12:39 51°11.398 2°44.108 8.4 149 9.6 100460 87
2002-11-12 09:12:43 51°11.399 2°44.109 8.4 164 9.6 100460 87
2002-11-12 09:12:49 51°11.4 2°44.11 8.9 162 9.6 100460 87
2002-11-12 09:12:54 51°11.401 2°44.112 7.9 152 9.5 100460 87
2002-11-12 09:12:59 51°11.402 2°44.113 9.4 152 9.5 100460 87
2002-11-12 09:13:03 51°11.403 2°44.115 11.4 153 9.6 100460 87
2002-11-12 09:13:09 51°11.404 2°44.117 9.9 152 9.6 100460 87
2002-11-12 09:13:14 51°11.406 2°44.118 9.8 156 9.6 100460 87
2002-11-12 09:13:19 51°11.407 2°44.12 10.7 156 9.6 100460 87
2002-11-12 09:13:23 51°11.408 2°44.121 10.1 155 9.6 100460 87
2002-11-12 09:13:29 51°11.409 2°44.123 9 154 9.6 100460 87
2002-11-12 09:13:34 51°11.41 2°44.124 10.1 151 9.6 100460 87
2002-11-12 09:13:39 51°11.411 2°44.126 8.3 157 9.6 100460 87
2002-11-12 09:13:43 51°11.412 2°44.127 9.4 160 9.6 100450 87
2002-11-12 09:13:49 51°11.413 2°44.129 10.4 161 9.6 100450 87
2002-11-12 09:13:54 51°11.414 2°44.13 9.5 157 9.6 100460 87
2002-11-12 09:13:59 51°11.415 2°44.132 9.5 155 9.6 100460 87
2002-11-12 09:14:03 51°11.416 2°44.133 11.3 161 9.6 100460 87
2002-11-12 09:14:09 51°11.418 2°44.135 12.3 158 9.6 100460 87
2002-11-12 09:14:14 51°11.419 2°44.136 13.2 159 9.6 100460 87
2002-11-12 09:14:19 51°11.42 2°44.138 11.3 153 9.6 100460 87
2002-11-12 09:14:24 51°11.421 2°44.139 12.6 150 9.6 100450 87
2002-11-12 09:14:29 51°11.422 2°44.14 11.8 151 9.6 100450 87
2002-11-12 09:14:33 51°11.424 2°44.142 11.9 144 9.6 100450 87
2002-11-12 09:14:39 51°11.425 2°44.143 12.7 151 9.6 100450 87
2002-11-12 09:14:43 51°11.426 2°44.144 11.7 161 9.6 100440 87
2002-11-12 09:14:49 51°11.427 2°44.146 11.9 162 9.6 100440 87
2002-11-12 09:14:54 51°11.429 2°44.147 13.4 155 9.6 100440 87
2002-11-12 09:14:59 51°11.43 2°44.149 10.7 145 9.6 100440 87
2002-11-12 09:15:03 51°11.431 2°44.15 12.4 149 9.6 100450 87
2002-11-12 09:15:09 51°11.432 2°44.152 11.9 152 9.6 100450 87
2002-11-12 09:15:13 51°11.433 2°44.153 11.4 152 9.6 100450 87
2002-11-12 09:15:19 51°11.435 2°44.154 9.5 163 9.6 100450 87
2002-11-12 09:15:23 51°11.436 2°44.156 9.5 152 9.6 100440 86
2002-11-12 09:15:29 51°11.438 2°44.157 9.9 140 9.6 100440 86
2002-11-12 09:15:34 51°11.439 2°44.159 11.6 145 9.6 100450 86
2002-11-12 09:15:39 51°11.44 2°44.16 10.1 151 9.6 100450 86
2002-11-12 09:15:43 51°11.44 2°44.161 11.5 146 9.6 100450 87
2002-11-12 09:15:49 51°11.442 2°44.163 10.6 146 9.6 100450 87
2002-11-12 09:15:54 51°11.444 2°44.165 9.4 149 9.6 100460 87
2002-11-12 09:15:59 51°11.446 2°44.166 10.3 146 9.6 100460 87
2002-11-12 09:16:03 51°11.447 2°44.168 9.2 138 9.6 100450 87
2002-11-12 09:16:09 51°11.448 2°44.169 10.3 147 9.6 100450 87
2002-11-12 09:16:14 51°11.448 2°44.171 10.6 147 9.6 100450 87
2002-11-12 09:16:19 51°11.45 2°44.172 10 151 9.6 100450 87
2002-11-12 09:16:23 51°11.451 2°44.173 10.9 150 9.6 100450 86
2002-11-12 09:16:29 51°11.452 2°44.175 10.4 146 9.6 100450 86
2002-11-12 09:16:34 51°11.453 2°44.176 11 154 9.6 100460 87
2002-11-12 09:16:39 51°11.454 2°44.177 10 159 9.6 100460 87
2002-11-12 09:16:43 51°11.455 2°44.178 11.6 153 9.6 100450 87
2002-11-12 09:16:49 51°11.457 2°44.18 10.3 144 9.6 100450 87
2002-11-12 09:16:54 51°11.458 2°44.181 10.5 143 9.6 100460 86
2002-11-12 09:16:59 51°11.46 2°44.183 10.5 146 9.6 100460 86
2002-11-12 09:17:03 51°11.46 2°44.184 9.4 149 9.6 100450 86
2002-11-12 09:17:07 51°11.462 2°44.185 9.3 146 9.6 100450 86
2002-11-12 09:17:14 51°11.463 2°44.187 9.6 146 9.6 100450 86
2002-11-12 09:17:19 51°11.464 2°44.188 9.3 148 9.6 100450 86
2002-11-12 09:17:23 51°11.466 2°44.189 10.3 151 9.6 100460 87
2002-11-12 09:17:29 51°11.467 2°44.191 11.5 143 9.6 100460 87
2002-11-12 09:17:34 51°11.468 2°44.192 9.9 139 9.6 100460 87
2002-11-12 09:17:39 51°11.469 2°44.193 10.4 152 9.6 100460 87
2002-11-12 09:17:43 51°11.47 2°44.194 10.1 152 9.6 100450 87
2002-11-12 09:17:49 51°11.472 2°44.196 11.9 146 9.6 100450 87
2002-11-12 09:17:54 51°11.473 2°44.197 10.5 148 9.6 100460 87
2002-11-12 09:17:59 51°11.474 2°44.198 11.3 152 9.6 100460 87
2002-11-12 09:18:03 51°11.476 2°44.2 11.8 145 9.6 100450 87
2002-11-12 09:18:09 51°11.478 2°44.202 10.7 154 9.6 100450 87
2002-11-12 09:18:13 51°11.478 2°44.203 11 154 9.6 100450 87
2002-11-12 09:18:18 51°11.48 2°44.204 12.4 152 9.6 100450 87
2002-11-12 09:18:23 51°11.481 2°44.205 11.8 157 9.6 100450 87
2002-11-12 09:18:29 51°11.483 2°44.207 12.7 151 9.6 100450 87
2002-11-12 09:18:34 51°11.484 2°44.209 13 151 9.7 100450 87
2002-11-12 09:18:39 51°11.485 2°44.21 12 150 9.7 100450 87
2002-11-12 09:18:44 51°11.487 2°44.212 10.7 150 9.6 100450 87
2002-11-12 09:18:49 51°11.488 2°44.213 10.2 141 9.6 100450 87
2002-11-12 09:18:54 51°11.489 2°44.214 11.2 142 9.6 100450 86
2002-11-12 09:18:59 51°11.49 2°44.216 10.2 143 9.6 100450 86
2002-11-12 09:19:03 51°11.491 2°44.216 9.7 140 9.6 100450 86
2002-11-12 09:19:09 51°11.493 2°44.218 10.2 140 9.6 100450 86
2002-11-12 09:19:13 51°11.493 2°44.219 11.3 153 9.6 100450 86
2002-11-12 09:19:19 51°11.494 2°44.221 9.8 143 9.6 100450 86
2002-11-12 09:19:23 51°11.495 2°44.222 9.5 141 9.6 100450 86
2002-11-12 09:19:29 51°11.496 2°44.223 9.4 143 9.6 100450 86
2002-11-12 09:19:34 51°11.496 2°44.225 9.1 139 9.6 100460 86
2002-11-12 09:19:39 51°11.497 2°44.227 10.8 142 9.6 100460 86
2002-11-12 09:19:43 51°11.498 2°44.23 10.4 150 9.6 100450 86
2002-11-12 09:19:49 51°11.499 2°44.237 11.8 165 9.6 100450 86
2002-11-12 09:19:54 51°11.499 2°44.243 9.7 176 9.6 100450 86
2002-11-12 09:19:58 51°11.499 2°44.25 10.8 180 9.6 100450 86
2002-11-12 09:20:04 51°11.497 2°44.259 9.8 185 9.6 100460 87
2002-11-12 09:20:09 51°11.494 2°44.268 13.1 194 9.6 100460 87
2002-11-12 09:20:13 51°11.491 2°44.275 12 195 9.7 100450 87
2002-11-12 09:20:19 51°11.486 2°44.284 13 205 9.7 100450 87
2002-11-12 09:20:23 51°11.481 2°44.29 14.2 211 9.7 100460 87
2002-11-12 09:20:29 51°11.474 2°44.295 15.4 221 9.7 100460 87
2002-11-12 09:20:34 51°11.467 2°44.299 16.1 225 9.7 100450 87
2002-11-12 09:20:39 51°11.459 2°44.301 14.7 235 9.7 100450 87
2002-11-12 09:20:43 51°11.453 2°44.302 14.6 242 9.7 100460 87
2002-11-12 09:20:47 51°11.447 2°44.3 13.5 250 9.7 100460 87
2002-11-12 09:20:54 51°11.437 2°44.295 14 257 9.7 100470 86
2002-11-12 09:20:58 51°11.431 2°44.29 14.9 262 9.7 100470 86
2002-11-12 09:21:04 51°11.422 2°44.279 15.4 272 9.6 100460 86
2002-11-12 09:21:09 51°11.415 2°44.266 13.6 272 9.6 100460 86
2002-11-12 09:21:14 51°11.409 2°44.252 14.8 271 9.6 100440 86
2002-11-12 09:21:19 51°11.403 2°44.235 16.5 281 9.6 100440 86
2002-11-12 09:21:23 51°11.399 2°44.219 15.2 280 9.6 100420 86
2002-11-12 09:21:29 51°11.393 2°44.194 13.8 276 9.6 100420 86
2002-11-12 09:21:34 51°11.388 2°44.171 16.2 282 9.7 100430 86
2002-11-12 09:21:39 51°11.382 2°44.147 15.7 277 9.7 100430 86
2002-11-12 09:21:43 51°11.377 2°44.127 15.6 272 9.6 100430 86
2002-11-12 09:21:49 51°11.37 2°44.097 15.6 280 9.6 100430 86
2002-11-12 09:21:54 51°11.364 2°44.071 15.1 272 9.6 100410 86
2002-11-12 09:21:59 51°11.357 2°44.046 15.4 272 9.6 100410 86
2002-11-12 09:22:03 51°11.352 2°44.025 17.1 272 9.6 100420 86
2002-11-12 09:22:09 51°11.344 2°43.994 16.1 275 9.6 100420 86
2002-11-12 09:22:14 51°11.337 2°43.967 14.8 279 9.6 100400 86
2002-11-12 09:22:19 51°11.331 2°43.94 15.2 277 9.6 100400 86
2002-11-12 09:22:23 51°11.325 2°43.919 16.2 280 9.6 100420 86
2002-11-12 09:22:29 51°11.317 2°43.887 16.8 274 9.6 100420 86
2002-11-12 09:22:33 51°11.311 2°43.865 15.9 280 9.6 100410 86
2002-11-12 09:22:39 51°11.303 2°43.833 15.7 275 9.6 100410 86
2002-11-12 09:22:44 51°11.296 2°43.806 17.7 279 9.7 100410 86
2002-11-12 09:22:49 51°11.289 2°43.779 17 284 9.7 100410 86
2002-11-12 09:22:54 51°11.283 2°43.752 16.2 275 9.7 100410 86
2002-11-12 09:22:59 51°11.276 2°43.724 17.8 281 9.7 100410 86
2002-11-12 09:23:03 51°11.271 2°43.703 18 281 9.7 100420 86
2002-11-12 09:23:09 51°11.262 2°43.67 15.6 280 9.7 100420 86
2002-11-12 09:23:14 51°11.255 2°43.643 15.8 272 9.7 100400 86